Powrót do katalogu

SL-14 DEB

AktywnyPO
NORAD 17268·DEBRIS·🇷🇺 Russia

Wystrzelony Dec 18, 1986 z Plesetsk Cosmodrome

Loading…

Następne Przeloty (najbliższe 24 godziny)

TLE

ŚwieżeSource: Space-Track

Epoka: Sep 14, 2026, 05:19 UTC

1 17268U 86101C   26257.22204961  .00000411  00000-0  27540-3 0  9995
2 17268  82.6162 177.2364 0026448 315.2350 208.5875 13.98553487 19260

Śledź SL-14 DEB w czasie rzeczywistym z AllMySat

Download on the App Store